| time (UTC) | temp C | wind direction | speed KPH | gust KPH | rain 1hr cm | rain 24hr cm | rain mn cm | humidity % | barometer mb |
| 20260504081542 | 6 | 285 | 0.0 | 0.0 | 0.00 | 0.00 | 0.00 | 82 | 1012.6 |
| 20260504050016 | 3 | 285 | 0.0 | 0.0 | 0.00 | 0.00 | 0.00 | 82 | 1013.3 |
| 20260504044513 | 3 | 285 | 0.0 | 0.0 | 0.00 | 0.00 | 0.00 | 80 | 1013.3 |
| 20260504043012 | 3 | 285 | 0.0 | 0.0 | 0.00 | 0.00 | 0.00 | 79 | 1013.2 |
| 20260504041509 | 3 | 285 | 0.0 | 0.0 | 0.00 | 0.00 | 0.00 | 77 | 1013.2 |
| 20260504040006 | 4 | 285 | 0.0 | 0.0 | 0.00 | 0.00 | 0.00 | 76 | 1013.2 |
| 20260504034505 | 5 | 285 | 0.0 | 0.0 | 0.00 | 0.00 | 0.00 | 74 | 1013.0 |
| 20260504033010 | 5 | 285 | 0.0 | 0.0 | 0.00 | 0.00 | 0.00 | 71 | 1012.9 |
| 20260504031506 | 5 | 285 | 0.0 | 0.0 | 0.00 | 0.00 | 0.00 | 66 | 1013.0 |
| 20260504030003 | 6 | 285 | 0.0 | 0.0 | 0.00 | 0.00 | 0.00 | 68 | 1012.9 |
| 20260504024506 | 6 | 285 | 0.0 | 0.0 | 0.00 | 0.00 | 0.00 | 69 | 1012.7 |
| 20260504023001 | 6 | 285 | 0.0 | 0.0 | 0.00 | 0.00 | 0.00 | 67 | 1012.8 |
| 20260504021501 | 6 | 285 | 0.0 | 0.0 | 0.00 | 0.00 | 0.00 | 66 | 1012.6 |
| 20260504020002 | 7 | 285 | 0.0 | 0.0 | 0.00 | 0.00 | 0.00 | 62 | 1012.5 |
| 20260504014600 | 7 | 285 | 0.0 | 0.0 | 0.00 | 0.00 | 0.00 | 59 | 1012.4 |
| 20260504013114 | 7 | 285 | 0.0 | 0.0 | 0.00 | 0.00 | 0.00 | 59 | 1012.4 |
| 20260504011600 | 8 | 285 | 0.0 | 0.0 | 0.00 | 0.00 | 0.00 | 53 | 1012.2 |
| 20260504004621 | 10 | 285 | 0.0 | 0.0 | 0.00 | 0.00 | 0.00 | 47 | 1012.1 |
| 20260504003102 | 11 | 285 | 0.0 | 0.0 | 0.00 | 0.00 | 0.00 | 42 | 1012.1 |
| 20260504001605 | 13 | 285 | 0.0 | 0.0 | 0.00 | 0.00 | 0.00 | 37 | 1012.0 |
| 20260503234556 | 15 | 280 | 0.0 | 0.0 | 0.00 | 0.00 | 0.00 | 33 | 1011.7 |
| 20260503233056 | 16 | 286 | 0.0 | 0.0 | 0.00 | 0.00 | 0.00 | 31 | 1011.6 |
| 20260503231557 | 17 | 277 | 0.0 | 1.6 | 0.00 | 0.00 | 0.00 | 29 | 1011.5 |
| 20260503230104 | 17 | 271 | 0.0 | 0.0 | 0.00 | 0.00 | 0.00 | 29 | 1011.5 |
| 20260503224554 | 17 | 234 | 0.0 | 1.6 | 0.00 | 0.00 | 0.00 | 28 | 1011.3 |
| 20260503223058 | 17 | 213 | 0.0 | 0.0 | 0.00 | 0.00 | 0.00 | 28 | 1011.4 |
| 20260503221556 | 17 | 343 | 0.0 | 1.6 | 0.00 | 0.00 | 0.00 | 29 | 1011.5 |
| 20260503220059 | 17 | 215 | 0.0 | 17.7 | 0.00 | 0.00 | 0.00 | 30 | 1011.5 |
| 20260503214551 | 17 | 281 | 0.0 | 3.2 | 0.00 | 0.00 | 0.00 | 30 | 1011.6 |
| 20260503213053 | 17 | 277 | 0.0 | 3.2 | 0.00 | 0.00 | 0.00 | 29 | 1011.6 |
| 20260503211600 | 17 | 23 | 0.0 | 1.6 | 0.00 | 0.00 | 0.00 | 30 | 1011.6 |
| 20260503210050 | 17 | 218 | 0.0 | 8.0 | 0.00 | 0.00 | 0.00 | 28 | 1011.6 |
| 20260503204550 | 17 | 22 | 0.0 | 6.4 | 0.00 | 0.00 | 0.00 | 28 | 1011.7 |
| 20260503203049 | 18 | 288 | 0.0 | 3.2 | 0.00 | 0.00 | 0.00 | 31 | 1011.7 |
| 20260503201547 | 17 | 138 | 0.0 | 0.0 | 0.00 | 0.00 | 0.00 | 29 | 1011.8 |
| 20260503200046 | 17 | 233 | 0.0 | 0.0 | 0.00 | 0.00 | 0.00 | 27 | 1012.1 |
| 20260503194548 | 17 | 294 | 0.0 | 9.7 | 0.00 | 0.00 | 0.00 | 28 | 1012.2 |
| 20260503193043 | 18 | 277 | 0.0 | 0.0 | 0.00 | 0.00 | 0.00 | 27 | 1012.4 |
| 20260503191540 | 17 | 261 | 0.0 | 1.6 | 0.00 | 0.00 | 0.00 | 30 | 1012.7 |
| 20260503190044 | 17 | 213 | 0.0 | 9.7 | 0.00 | 0.00 | 0.00 | 31 | 1013.1 |
| 20260503184542 | 16 | 286 | 0.0 | 1.6 | 0.00 | 0.00 | 0.00 | 31 | 1013.1 |
| 20260503183036 | 16 | 275 | 0.0 | 0.0 | 0.00 | 0.00 | 0.00 | 29 | 1013.3 |
| 20260503181536 | 16 | 313 | 0.0 | 11.3 | 0.00 | 0.00 | 0.00 | 33 | 1013.4 |
| 20260503180031 | 15 | 298 | 1.6 | 16.1 | 0.00 | 0.00 | 0.00 | 29 | 1013.5 |
| 20260503174537 | 15 | 304 | 4.8 | 20.9 | 0.00 | 0.00 | 0.00 | 32 | 1013.7 |
| 20260503173027 | 15 | 302 | 0.0 | 19.3 | 0.00 | 0.00 | 0.00 | 35 | 1013.8 |
| 20260503171525 | 15 | 259 | 0.0 | 11.3 | 0.00 | 0.00 | 0.00 | 38 | 1014.1 |
| 20260503140106 | 10 | 311 | 0.0 | 4.8 | 0.00 | 0.00 | 0.00 | 54 | 1015.4 |